Time,TemperatureF,DewpointF,PressureIn,WindDirection,WindDirectionDegrees,WindSpeedMPH,WindSpeedGustMPH,Humidity,HourlyPrecipIn,Conditions,Clouds,dailyrainin,SoftwareType,DateUTC
2013-01-14 00:00:00,39.7,39.0,30.13,West,273,4.0,7.0,97,0.00,OVC,OVC,0.00,WeatherDisplay:10.34,2013-01-14 05:00:00,
2013-01-14 00:04:00,39.7,39.0,30.13,WSW,237,5.0,13.0,97,0.00,OVC,OVC,0.00,WeatherDisplay:10.34,2013-01-14 05:04:00,
2013-01-14 00:06:00,39.9,39.1,30.13,WSW,238,4.0,10.0,97,0.00,OVC,OVC,0.00,WeatherDisplay:10.34,2013-01-14 05:06:00,
2013-01-14 00:11:00,39.9,39.1,30.13,West,261,3.0,7.0,97,0.00,OVC,OVC,0.00,WeatherDisplay:10.34,2013-01-14 05:11:00,
2013-01-14 00:16:00,39.7,39.0,30.13,WNW,303,0.0,3.0,97,0.00,OVC,OVC,0.00,WeatherDisplay:10.34,2013-01-14 05:16:00,
2013-01-14 00:21:00,39.4,38.6,30.13,WNW,293,3.0,8.0,97,0.00,OVC,OVC,0.00,WeatherDisplay:10.34,2013-01-14 05:21:00,
2013-01-14 00:24:00,39.4,38.6,30.13,West,273,0.0,7.0,97,0.00,OVC,OVC,0.00,WeatherDisplay:10.34,2013-01-14 05:24:00,
2013-01-14 00:29:00,39.4,38.6,30.13,West,281,4.0,7.0,97,0.00,OVC,OVC,0.00,WeatherDisplay:10.34,2013-01-14 05:29:00,
2013-01-14 00:34:00,39.7,39.0,30.13,WSW,252,3.0,7.0,97,0.00,OVC,OVC,0.00,WeatherDisplay:10.34,2013-01-14 05:34:00,
2013-01-14 00:39:00,39.6,38.8,30.13,WNW,282,0.0,0.0,97,0.00,OVC,OVC,0.00,WeatherDisplay:10.34,2013-01-14 05:39:00,
2013-01-14 00:44:00,39.4,38.6,30.13,West,260,5.0,9.0,97,0.00,OVC,OVC,0.00,WeatherDisplay:10.34,2013-01-14 05:44:00,
2013-01-14 00:49:00,39.4,38.6,30.13,West,263,0.0,0.0,97,0.00,OVC,OVC,0.00,WeatherDisplay:10.34,2013-01-14 05:49:00,
2013-01-14 00:54:00,39.2,38.4,30.13,West,261,3.0,5.0,97,0.00,OVC,OVC,0.00,WeatherDisplay:10.34,2013-01-14 05:54:00,
2013-01-14 00:59:00,39.4,38.6,30.13,West,281,4.0,5.0,97,0.00,OVC,OVC,0.00,WeatherDisplay:10.34,2013-01-14 05:59:00,
2013-01-14 01:04:00,39.7,39.0,30.13,SW,236,3.0,6.0,97,0.00,OVC,OVC,0.00,WeatherDisplay:10.34,2013-01-14 06:04:00,
2013-01-14 01:09:00,39.9,39.1,30.13,WSW,256,4.0,7.0,97,0.00,OVC,OVC,0.00,WeatherDisplay:10.34,2013-01-14 06:09:00,
2013-01-14 01:14:00,40.5,39.7,30.13,WNW,283,3.0,3.0,97,0.00,OVC,OVC,0.00,WeatherDisplay:10.34,2013-01-14 06:14:00,
2013-01-14 01:19:00,40.5,39.7,30.13,WSW,258,3.0,6.0,97,0.00,OVC,OVC,0.00,WeatherDisplay:10.34,2013-01-14 06:19:00,
2013-01-14 01:25:00,40.5,39.7,30.13,West,262,6.0,9.0,97,0.00,OVC,OVC,0.00,WeatherDisplay:10.34,2013-01-14 06:25:00,
2013-01-14 01:30:00,40.6,39.9,30.13,SW,236,3.0,8.0,97,0.00,OVC,OVC,0.00,WeatherDisplay:10.34,2013-01-14 06:30:00,
2013-01-14 01:35:00,40.5,39.7,30.13,WSW,249,0.0,10.0,97,0.00,OVC,OVC,0.00,WeatherDisplay:10.34,2013-01-14 06:35:00,
2013-01-14 01:40:00,40.6,39.9,30.13,West,277,3.0,6.0,97,0.00,OVC,OVC,0.00,WeatherDisplay:10.34,2013-01-14 06:40:00,
2013-01-14 01:45:00,40.6,39.9,30.13,West,263,4.0,5.0,97,0.00,OVC,OVC,0.00,WeatherDisplay:10.34,2013-01-14 06:45:00,
2013-01-14 01:50:00,40.8,40.0,30.13,NW,305,4.0,8.0,97,0.00,OVC,OVC,0.00,WeatherDisplay:10.34,2013-01-14 06:50:00,
2013-01-14 01:55:00,40.8,40.0,30.13,West,263,0.0,2.0,97,0.00,OVC,OVC,0.00,WeatherDisplay:10.34,2013-01-14 06:55:00,
2013-01-14 02:00:00,40.5,39.7,30.13,North,351,0.0,2.0,97,0.00,OVC,OVC,0.00,WeatherDisplay:10.34,2013-01-14 07:00:00,
2013-01-14 02:05:00,40.5,39.7,30.10,West,270,3.0,8.0,97,0.00,OVC,OVC,0.00,WeatherDisplay:10.34,2013-01-14 07:05:00,
2013-01-14 02:10:00,40.6,39.9,30.10,West,274,6.0,9.0,97,0.00,OVC,OVC,0.00,WeatherDisplay:10.34,2013-01-14 07:10:00,
2013-01-14 02:15:00,41.0,40.2,30.10,WNW,292,4.0,8.0,97,0.00,OVC,OVC,0.00,WeatherDisplay:10.34,2013-01-14 07:15:00,
2013-01-14 02:20:00,41.2,40.4,30.10,WNW,286,0.0,7.0,97,0.00,OVC,OVC,0.00,WeatherDisplay:10.34,2013-01-14 07:20:00,
2013-01-14 02:25:00,41.2,40.4,30.10,WNW,299,3.0,6.0,97,0.00,OVC,OVC,0.00,WeatherDisplay:10.34,2013-01-14 07:25:00,
2013-01-14 02:30:00,41.2,40.4,30.10,West,262,0.0,6.0,97,0.00,OVC,OVC,0.00,WeatherDisplay:10.34,2013-01-14 07:30:00,
2013-01-14 02:35:00,41.2,40.4,30.10,WSW,243,0.0,3.0,97,0.00,OVC,OVC,0.00,WeatherDisplay:10.34,2013-01-14 07:35:00,
2013-01-14 02:40:00,40.3,39.5,30.10,WNW,287,3.0,7.0,97,0.00,OVC,OVC,0.00,WeatherDisplay:10.34,2013-01-14 07:40:00,
2013-01-14 02:45:00,39.6,38.8,30.10,WNW,287,0.0,2.0,97,0.00,OVC,OVC,0.00,WeatherDisplay:10.34,2013-01-14 07:45:00,
2013-01-14 02:50:00,39.6,38.8,30.10,West,265,4.0,6.0,97,0.00,OVC,OVC,0.00,WeatherDisplay:10.34,2013-01-14 07:50:00,
2013-01-14 02:55:00,39.4,38.6,30.10,West,266,3.0,6.0,97,0.00,OVC,OVC,0.00,WeatherDisplay:10.34,2013-01-14 07:55:00,
2013-01-14 03:00:00,39.4,38.6,30.10,West,271,0.0,6.0,97,0.00,OVC,OVC,0.00,WeatherDisplay:10.34,2013-01-14 08:00:00,
2013-01-14 03:05:00,39.6,38.8,30.10,WNW,284,4.0,8.0,97,0.00,OVC,OVC,0.00,WeatherDisplay:10.34,2013-01-14 08:05:00,
2013-01-14 03:10:00,39.6,38.8,30.10,West,259,3.0,6.0,97,0.00,OVC,OVC,0.00,WeatherDisplay:10.34,2013-01-14 08:10:00,
2013-01-14 03:15:00,39.4,38.6,30.10,WNW,290,0.0,0.0,97,0.00,OVC,OVC,0.00,WeatherDisplay:10.34,2013-01-14 08:15:00,
2013-01-14 03:20:00,39.2,38.4,30.10,West,259,3.0,7.0,97,0.00,OVC,OVC,0.00,WeatherDisplay:10.34,2013-01-14 08:20:00,
2013-01-14 03:25:00,39.2,38.4,30.10,West,259,0.0,0.0,97,0.00,OVC,OVC,0.00,WeatherDisplay:10.34,2013-01-14 08:25:00,
2013-01-14 03:30:00,39.4,38.6,30.10,West,259,0.0,7.0,97,0.00,OVC,OVC,0.00,WeatherDisplay:10.34,2013-01-14 08:30:00,
2013-01-14 03:35:00,39.4,38.6,30.10,WSW,254,3.0,6.0,97,0.00,OVC,OVC,0.00,WeatherDisplay:10.34,2013-01-14 08:35:00,
2013-01-14 03:40:00,39.6,38.8,30.10,West,275,0.0,3.0,97,0.00,OVC,OVC,0.00,WeatherDisplay:10.34,2013-01-14 08:40:00,
2013-01-14 03:45:00,39.4,38.6,30.10,WNW,283,0.0,0.0,97,0.00,OVC,OVC,0.00,WeatherDisplay:10.34,2013-01-14 08:45:00,
2013-01-14 03:50:00,39.2,38.4,30.07,West,267,0.0,3.0,97,0.00,OVC,OVC,0.00,WeatherDisplay:10.34,2013-01-14 08:50:00,
2013-01-14 03:55:00,39.2,38.4,30.07,West,280,0.0,2.0,97,0.00,OVC,OVC,0.00,WeatherDisplay:10.34,2013-01-14 08:55:00,
2013-01-14 04:00:00,39.0,38.2,30.07,West,281,0.0,3.0,97,0.00,OVC,OVC,0.00,WeatherDisplay:10.34,2013-01-14 09:00:00,
2013-01-14 04:05:00,39.2,38.4,30.07,West,271,0.0,0.0,97,0.00,OVC,OVC,0.00,WeatherDisplay:10.34,2013-01-14 09:05:00,
2013-01-14 04:10:00,39.4,38.6,30.07,West,268,0.0,3.0,97,0.00,OVC,OVC,0.00,WeatherDisplay:10.34,2013-01-14 09:10:00,
2013-01-14 04:15:00,39.2,38.4,30.07,West,259,0.0,0.0,97,0.00,OVC,OVC,0.00,WeatherDisplay:10.34,2013-01-14 09:15:00,
2013-01-14 04:20:00,39.0,38.2,30.07,West,259,4.0,7.0,97,0.00,OVC,OVC,0.00,WeatherDisplay:10.34,2013-01-14 09:20:00,
2013-01-14 04:25:00,38.8,38.1,30.07,WNW,293,3.0,5.0,97,0.00,OVC,OVC,0.00,WeatherDisplay:10.34,2013-01-14 09:25:00,
2013-01-14 04:30:00,39.0,38.2,30.07,West,269,0.0,2.0,97,0.00,OVC,OVC,0.00,WeatherDisplay:10.34,2013-01-14 09:30:00,
2013-01-14 04:35:00,39.4,38.6,30.07,WSW,253,4.0,6.0,97,0.00,OVC,OVC,0.00,WeatherDisplay:10.34,2013-01-14 09:35:00,
2013-01-14 04:40:00,39.4,38.6,30.07,SSW,208,0.0,2.0,97,0.00,OVC,OVC,0.00,WeatherDisplay:10.34,2013-01-14 09:40:00,
2013-01-14 04:45:00,39.2,38.4,30.07,WSW,240,3.0,5.0,97,0.00,OVC,OVC,0.00,WeatherDisplay:10.34,2013-01-14 09:45:00,
2013-01-14 04:50:00,39.0,38.2,30.08,SW,234,3.0,3.0,97,0.00,OVC,OVC,0.00,WeatherDisplay:10.34,2013-01-14 09:50:00,
2013-01-14 04:55:00,39.2,38.4,30.04,WNW,283,3.0,3.0,97,0.00,OVC,OVC,0.00,WeatherDisplay:10.34,2013-01-14 09:55:00,
2013-01-14 05:00:00,39.0,38.2,30.04,West,260,0.0,3.0,97,0.00,OVC,OVC,0.00,WeatherDisplay:10.34,2013-01-14 10:00:00,
2013-01-14 05:05:00,39.2,38.4,30.01,WSW,250,0.0,3.0,97,0.00,OVC,OVC,0.00,WeatherDisplay:10.34,2013-01-14 10:05:00,
2013-01-14 05:10:00,39.2,38.4,30.01,North,351,0.0,5.0,97,0.00,OVC,OVC,0.00,WeatherDisplay:10.34,2013-01-14 10:10:00,
2013-01-14 05:15:00,39.7,39.0,30.01,WNW,295,4.0,4.0,97,0.00,OVC,OVC,0.00,WeatherDisplay:10.34,2013-01-14 10:15:00,
2013-01-14 05:20:00,39.7,39.0,30.01,SW,223,0.0,0.0,97,0.00,OVC,OVC,0.00,WeatherDisplay:10.34,2013-01-14 10:20:00,
2013-01-14 05:26:00,39.7,39.0,30.04,West,269,0.0,0.0,97,0.00,OVC,OVC,0.00,WeatherDisplay:10.34,2013-01-14 10:26:00,
2013-01-14 05:31:00,39.4,38.6,30.04,NW,319,3.0,0.0,97,0.00,OVC,OVC,0.00,WeatherDisplay:10.34,2013-01-14 10:31:00,
2013-01-14 05:36:00,39.0,38.2,30.04,WSW,251,3.0,6.0,97,0.00,OVC,OVC,0.00,WeatherDisplay:10.34,2013-01-14 10:36:00,
2013-01-14 05:41:00,38.8,38.1,30.04,WSW,251,0.0,0.0,97,0.00,OVC,OVC,0.00,WeatherDisplay:10.34,2013-01-14 10:41:00,
2013-01-14 05:47:00,38.8,38.1,30.04,West,271,0.0,6.0,97,0.00,OVC,OVC,0.00,WeatherDisplay:10.34,2013-01-14 10:47:00,
2013-01-14 05:53:00,39.0,38.2,30.01,NNE,26,0.0,0.0,97,0.00,OVC,OVC,0.00,WeatherDisplay:10.34,2013-01-14 10:53:00,
2013-01-14 05:58:00,39.0,38.2,30.01,WNW,302,0.0,0.0,97,0.00,OVC,OVC,0.00,WeatherDisplay:10.34,2013-01-14 10:58:00,
2013-01-14 06:03:00,39.2,38.4,30.01,WNW,302,0.0,0.0,97,0.00,OVC,OVC,0.00,WeatherDisplay:10.34,2013-01-14 11:03:00,
2013-01-14 06:08:00,38.8,38.1,30.01,WNW,302,0.0,0.0,97,0.00,OVC,OVC,0.00,WeatherDisplay:10.34,2013-01-14 11:08:00,
2013-01-14 06:13:00,38.7,37.9,30.01,WNW,302,0.0,0.0,97,0.00,OVC,OVC,0.00,WeatherDisplay:10.34,2013-01-14 11:13:00,
2013-01-14 06:19:00,39.4,38.6,30.01,WNW,283,4.0,7.0,97,0.00,OVC,OVC,0.00,WeatherDisplay:10.34,2013-01-14 11:19:00,
2013-01-14 06:24:00,40.5,39.7,30.07,NW,308,0.0,3.0,97,0.00,OVC,OVC,0.00,WeatherDisplay:10.34,2013-01-14 11:24:00,
2013-01-14 06:29:00,40.8,40.0,30.07,WSW,239,3.0,7.0,97,0.00,OVC,OVC,0.00,WeatherDisplay:10.34,2013-01-14 11:29:00,
2013-01-14 06:34:00,41.0,40.2,30.07,WNW,288,4.0,6.0,97,0.00,OVC,OVC,0.00,WeatherDisplay:10.34,2013-01-14 11:34:00,
2013-01-14 06:39:00,41.2,40.4,30.07,West,276,3.0,3.0,97,0.00,OVC,OVC,0.00,WeatherDisplay:10.34,2013-01-14 11:39:00,
2013-01-14 06:44:00,41.0,40.2,30.07,SSW,204,4.0,12.0,97,0.00,OVC,OVC,0.00,WeatherDisplay:10.34,2013-01-14 11:44:00,
2013-01-14 06:49:00,41.0,40.2,30.07,North,0,3.0,6.0,97,0.00,OVC,OVC,0.00,WeatherDisplay:10.34,2013-01-14 11:49:00,
2013-01-14 06:54:00,41.0,40.2,30.04,WNW,283,4.0,7.0,97,0.00,OVC,OVC,0.00,WeatherDisplay:10.34,2013-01-14 11:54:00,
2013-01-14 06:59:00,41.0,40.2,30.04,SSW,193,4.0,7.0,97,0.00,OVC,OVC,0.00,WeatherDisplay:10.34,2013-01-14 11:59:00,
2013-01-14 07:04:00,40.8,40.0,30.04,WNW,289,3.0,7.0,97,0.00,OVC,OVC,0.00,WeatherDisplay:10.34,2013-01-14 12:04:00,
2013-01-14 07:09:00,40.8,40.0,30.04,West,271,4.0,6.0,97,0.00,OVC,OVC,0.00,WeatherDisplay:10.34,2013-01-14 12:09:00,
2013-01-14 07:14:00,41.0,40.2,30.04,NNE,16,5.0,12.0,97,0.00,OVC,OVC,0.00,WeatherDisplay:10.34,2013-01-14 12:14:00,
2013-01-14 07:19:00,41.0,40.2,30.04,SW,221,4.0,7.0,97,0.00,OVC,OVC,0.00,WeatherDisplay:10.34,2013-01-14 12:19:00,
2013-01-14 07:24:00,41.0,40.2,30.07,SW,221,0.0,6.0,97,0.00,OVC,OVC,0.00,WeatherDisplay:10.34,2013-01-14 12:24:00,
2013-01-14 07:29:00,41.0,40.2,30.07,SW,222,4.0,7.0,97,0.00,OVC,OVC,0.00,WeatherDisplay:10.34,2013-01-14 12:29:00,
2013-01-14 07:34:00,41.0,40.2,30.07,WNW,291,3.0,6.0,97,0.00,OVC,OVC,0.00,WeatherDisplay:10.34,2013-01-14 12:34:00,
2013-01-14 07:39:00,41.0,40.2,30.07,WNW,300,4.0,7.0,97,0.00,OVC,OVC,0.00,WeatherDisplay:10.34,2013-01-14 12:39:00,
2013-01-14 07:44:00,41.0,40.2,30.07,West,261,8.0,14.0,97,0.00,OVC,OVC,0.00,WeatherDisplay:10.34,2013-01-14 12:44:00,
2013-01-14 07:49:00,41.0,40.2,30.07,North,351,4.0,8.0,97,0.00,OVC,OVC,0.00,WeatherDisplay:10.34,2013-01-14 12:49:00,
2013-01-14 07:54:00,41.2,40.4,30.07,WSW,243,3.0,8.0,97,0.00,OVC,OVC,0.00,WeatherDisplay:10.34,2013-01-14 12:54:00,
2013-01-14 07:59:00,41.2,40.4,30.07,WNW,290,4.0,6.0,97,0.00,OVC,OVC,0.00,WeatherDisplay:10.34,2013-01-14 12:59:00,
2013-01-14 08:04:00,41.4,40.6,30.07,WNW,298,4.0,12.0,97,0.00,OVC,OVC,0.00,WeatherDisplay:10.34,2013-01-14 13:04:00,
2013-01-14 08:09:00,41.2,40.4,30.07,SSW,208,4.0,7.0,97,0.00,OVC,OVC,0.00,WeatherDisplay:10.34,2013-01-14 13:09:00,
2013-01-14 08:14:00,41.2,40.4,30.07,West,274,4.0,9.0,97,0.00,OVC,OVC,0.00,WeatherDisplay:10.34,2013-01-14 13:14:00,
2013-01-14 08:19:00,41.2,40.4,30.07,South,189,3.0,5.0,97,0.00,OVC,OVC,0.00,WeatherDisplay:10.34,2013-01-14 13:19:00,
2013-01-14 08:24:00,41.4,40.6,30.07,SW,220,4.0,9.0,97,0.00,OVC,OVC,0.00,WeatherDisplay:10.34,2013-01-14 13:24:00,
2013-01-14 08:29:00,41.4,40.6,30.07,North,3,4.0,9.0,97,0.00,OVC,OVC,0.00,WeatherDisplay:10.34,2013-01-14 13:29:00,
2013-01-14 08:34:00,41.4,40.6,30.07,NNW,333,4.0,7.0,97,0.00,OVC,OVC,0.00,WeatherDisplay:10.34,2013-01-14 13:34:00,
2013-01-14 08:39:00,41.2,40.4,30.07,NNE,14,8.0,13.0,97,0.00,OVC,OVC,0.00,WeatherDisplay:10.34,2013-01-14 13:39:00,
2013-01-14 08:44:00,41.2,40.4,30.07,South,185,5.0,8.0,97,0.00,OVC,OVC,0.00,WeatherDisplay:10.34,2013-01-14 13:44:00,
2013-01-14 08:49:00,41.0,40.2,30.07,SW,218,6.0,10.0,97,0.00,OVC,OVC,0.00,WeatherDisplay:10.34,2013-01-14 13:49:00,
2013-01-14 08:54:00,41.0,40.2,30.07,NW,313,4.0,7.0,97,0.00,OVC,OVC,0.00,WeatherDisplay:10.34,2013-01-14 13:54:00,
2013-01-14 08:59:00,41.0,40.2,30.07,WSW,252,7.0,13.0,97,0.00,OVC,OVC,0.00,WeatherDisplay:10.34,2013-01-14 13:59:00,
2013-01-14 09:04:00,41.0,40.2,30.07,WSW,252,5.0,9.0,97,0.00,OVC,OVC,0.00,WeatherDisplay:10.34,2013-01-14 14:04:00,
2013-01-14 09:09:00,41.0,40.2,30.10,SW,224,5.0,9.0,97,0.00,OVC,OVC,0.00,WeatherDisplay:10.34,2013-01-14 14:09:00,
2013-01-14 09:15:00,41.0,40.2,30.10,NW,321,4.0,12.0,97,0.00,OVC,OVC,0.00,WeatherDisplay:10.34,2013-01-14 14:15:00,
2013-01-14 09:20:00,41.2,40.4,30.10,WNW,302,6.0,13.0,97,0.00,OVC,OVC,0.00,WeatherDisplay:10.34,2013-01-14 14:20:00,
2013-01-14 09:25:00,41.0,40.2,30.10,WSW,237,7.0,9.0,97,0.00,OVC,OVC,0.00,WeatherDisplay:10.34,2013-01-14 14:25:00,
2013-01-14 09:30:00,41.2,40.4,30.10,West,263,5.0,6.0,97,0.00,OVC,OVC,0.00,WeatherDisplay:10.34,2013-01-14 14:30:00,
2013-01-14 09:35:00,41.5,40.8,30.10,SSW,209,5.0,12.0,97,0.00,OVC,OVC,0.00,WeatherDisplay:10.34,2013-01-14 14:35:00,
2013-01-14 09:40:00,41.5,40.8,30.10,West,277,6.0,12.0,97,0.00,OVC,OVC,0.00,WeatherDisplay:10.34,2013-01-14 14:40:00,
2013-01-14 09:45:00,41.9,41.1,30.10,SW,222,3.0,7.0,97,0.00,OVC,OVC,0.00,WeatherDisplay:10.34,2013-01-14 14:45:00,
2013-01-14 09:50:00,42.1,41.3,30.10,WNW,297,5.0,8.0,97,0.00,OVC,OVC,0.00,WeatherDisplay:10.34,2013-01-14 14:50:00,
2013-01-14 09:55:00,42.1,41.3,30.10,SW,233,7.0,9.0,97,0.00,OVC,OVC,0.00,WeatherDisplay:10.34,2013-01-14 14:55:00,
2013-01-14 10:00:00,42.1,41.3,30.10,NNW,337,5.0,9.0,97,0.00,OVC,OVC,0.00,WeatherDisplay:10.34,2013-01-14 15:00:00,
2013-01-14 10:05:00,42.1,41.3,30.10,West,261,4.0,9.0,97,0.00,CLR,CLR,0.00,WeatherDisplay:10.34,2013-01-14 15:05:00,
2013-01-14 10:10:00,42.1,41.3,30.10,West,259,3.0,9.0,97,0.00,CLR,CLR,0.00,WeatherDisplay:10.34,2013-01-14 15:10:00,
2013-01-14 10:15:00,41.9,41.1,30.10,WNW,292,4.0,8.0,97,0.00,CLR,CLR,0.00,WeatherDisplay:10.34,2013-01-14 15:15:00,
2013-01-14 10:20:00,41.9,41.1,30.10,West,277,5.0,10.0,97,0.00,CLR,CLR,0.00,WeatherDisplay:10.34,2013-01-14 15:20:00,
2013-01-14 10:25:00,42.3,41.5,30.10,West,278,5.0,9.0,97,0.00,CLR,CLR,0.00,WeatherDisplay:10.34,2013-01-14 15:25:00,
2013-01-14 10:30:00,42.8,42.0,30.10,SW,225,3.0,7.0,97,0.00,CLR,CLR,0.00,WeatherDisplay:10.34,2013-01-14 15:30:00,
2013-01-14 10:35:00,43.3,42.5,30.10,East,96,6.0,12.0,97,0.00,CLR,CLR,0.00,WeatherDisplay:10.34,2013-01-14 15:35:00,
2013-01-14 10:40:00,43.5,42.7,30.10,WNW,299,4.0,10.0,97,0.00,CLR,CLR,0.00,WeatherDisplay:10.34,2013-01-14 15:40:00,
2013-01-14 10:45:00,44.1,43.3,30.10,West,264,5.0,9.0,97,0.00,CLR,CLR,0.00,WeatherDisplay:10.34,2013-01-14 15:45:00,
2013-01-14 10:50:00,44.2,43.4,30.10,SW,233,3.0,9.0,97,0.00,CLR,CLR,0.00,WeatherDisplay:10.34,2013-01-14 15:50:00,
2013-01-14 10:55:00,44.6,43.8,30.10,North,6,4.0,4.0,97,0.00,CLR,CLR,0.00,WeatherDisplay:10.34,2013-01-14 15:55:00,
2013-01-14 11:00:00,45.1,44.3,30.09,WNW,299,6.0,8.0,97,0.00,CLR,CLR,0.00,WeatherDisplay:10.34,2013-01-14 16:00:00,
2013-01-14 11:05:00,45.5,44.7,30.06,ESE,103,5.0,12.0,97,0.00,CLR,CLR,0.00,WeatherDisplay:10.34,2013-01-14 16:05:00,
2013-01-14 11:10:00,45.7,44.9,30.06,WNW,287,6.0,10.0,97,0.00,CLR,CLR,0.00,WeatherDisplay:10.34,2013-01-14 16:10:00,
2013-01-14 11:15:00,46.0,45.2,30.06,NNE,18,6.0,6.0,97,0.00,CLR,CLR,0.00,WeatherDisplay:10.34,2013-01-14 16:15:00,
2013-01-14 11:20:00,46.4,45.6,30.06,West,281,4.0,7.0,97,0.00,CLR,CLR,0.00,WeatherDisplay:10.34,2013-01-14 16:20:00,
2013-01-14 11:25:00,46.6,45.8,30.09,North,2,4.0,7.0,97,0.00,CLR,CLR,0.00,WeatherDisplay:10.34,2013-01-14 16:25:00,
2013-01-14 11:30:00,46.8,46.0,30.09,SSW,209,5.0,6.0,97,0.00,CLR,CLR,0.00,WeatherDisplay:10.34,2013-01-14 16:30:00,
2013-01-14 11:35:00,47.1,46.3,30.09,SW,225,3.0,8.0,97,0.00,CLR,CLR,0.00,WeatherDisplay:10.34,2013-01-14 16:35:00,
2013-01-14 11:40:00,47.3,46.5,30.09,WSW,242,5.0,7.0,97,0.00,CLR,CLR,0.00,WeatherDisplay:10.34,2013-01-14 16:40:00,
2013-01-14 11:45:00,47.7,46.9,30.09,NE,35,5.0,8.0,97,0.00,CLR,CLR,0.00,WeatherDisplay:10.34,2013-01-14 16:45:00,
2013-01-14 11:50:00,48.0,47.2,30.09,SW,226,4.0,6.0,97,0.00,CLR,CLR,0.00,WeatherDisplay:10.34,2013-01-14 16:50:00,
2013-01-14 11:55:00,48.4,47.6,30.09,WSW,249,6.0,12.0,97,0.00,CLR,CLR,0.00,WeatherDisplay:10.34,2013-01-14 16:55:00,
2013-01-14 12:00:00,48.6,47.7,30.09,ESE,118,4.0,7.0,97,0.00,CLR,CLR,0.00,WeatherDisplay:10.34,2013-01-14 17:00:00,
2013-01-14 12:05:00,48.7,47.9,30.09,NNW,336,3.0,7.0,97,0.00,CLR,CLR,0.00,WeatherDisplay:10.34,2013-01-14 17:05:00,
2013-01-14 12:10:00,48.9,48.1,30.09,WNW,286,4.0,9.0,97,0.00,CLR,CLR,0.00,WeatherDisplay:10.34,2013-01-14 17:10:00,
2013-01-14 12:15:00,49.3,48.5,30.09,WSW,237,5.0,10.0,97,0.00,CLR,CLR,0.00,WeatherDisplay:10.34,2013-01-14 17:15:00,
2013-01-14 12:20:00,49.6,48.8,30.09,North,356,3.0,3.0,97,0.00,CLR,CLR,0.00,WeatherDisplay:10.34,2013-01-14 17:20:00,
2013-01-14 12:25:00,49.6,48.8,30.09,SSE,161,0.0,6.0,97,0.00,CLR,CLR,0.00,WeatherDisplay:10.34,2013-01-14 17:25:00,
2013-01-14 12:30:00,49.8,48.7,30.09,SW,229,3.0,9.0,96,0.00,CLR,CLR,0.00,WeatherDisplay:10.34,2013-01-14 17:30:00,
2013-01-14 12:35:00,50.0,47.5,30.09,SSE,161,4.0,6.0,91,0.00,CLR,CLR,0.00,WeatherDisplay:10.34,2013-01-14 17:35:00,
2013-01-14 12:40:00,50.0,45.4,30.09,North,9,4.0,5.0,84,0.00,CLR,CLR,0.00,WeatherDisplay:10.34,2013-01-14 17:40:00,
2013-01-14 12:45:00,50.2,42.9,30.09,NW,310,5.0,10.0,76,0.00,CLR,CLR,0.00,WeatherDisplay:10.34,2013-01-14 17:45:00,
2013-01-14 12:50:00,50.2,40.8,30.12,WSW,258,4.0,9.0,70,0.00,CLR,CLR,0.00,WeatherDisplay:10.34,2013-01-14 17:50:00,
2013-01-14 12:55:00,50.4,38.6,30.12,NNE,28,4.0,9.0,64,0.00,CLR,CLR,0.00,WeatherDisplay:10.34,2013-01-14 17:55:00,
2013-01-14 13:00:00,50.4,36.6,30.12,South,176,4.0,7.0,59,0.00,CLR,CLR,0.00,WeatherDisplay:10.34,2013-01-14 18:00:00,
2013-01-14 13:05:00,50.2,33.7,30.12,NW,309,6.0,10.0,53,0.00,CLR,CLR,0.00,WeatherDisplay:10.34,2013-01-14 18:05:00,
2013-01-14 13:10:00,50.0,33.5,30.12,West,274,4.0,7.0,53,0.00,CLR,CLR,0.00,WeatherDisplay:10.34,2013-01-14 18:10:00,
2013-01-14 13:15:00,50.0,33.5,30.12,WSW,252,6.0,10.0,53,0.00,CLR,CLR,0.00,WeatherDisplay:10.34,2013-01-14 18:15:00,
2013-01-14 13:20:00,50.0,33.1,30.12,NNW,329,6.0,8.0,52,0.00,CLR,CLR,0.00,WeatherDisplay:10.34,2013-01-14 18:20:00,
2013-01-14 13:25:00,50.0,32.1,30.12,North,1,5.0,12.0,50,0.00,CLR,CLR,0.00,WeatherDisplay:10.34,2013-01-14 18:25:00,
2013-01-14 13:30:00,50.0,32.1,30.12,NNW,331,4.0,8.0,50,0.00,CLR,CLR,0.00,WeatherDisplay:10.34,2013-01-14 18:30:00,
2013-01-14 13:35:00,50.0,31.6,30.15,NNW,333,6.0,9.0,49,0.00,CLR,CLR,0.00,WeatherDisplay:10.34,2013-01-14 18:35:00,
2013-01-14 13:40:00,49.8,31.4,30.15,North,7,6.0,14.0,49,0.00,CLR,CLR,0.00,WeatherDisplay:10.34,2013-01-14 18:40:00,
2013-01-14 13:45:00,49.6,31.2,30.15,North,0,7.0,10.0,49,0.00,CLR,CLR,0.00,WeatherDisplay:10.34,2013-01-14 18:45:00,
2013-01-14 13:50:00,49.5,30.0,30.15,NNW,347,5.0,12.0,47,0.00,CLR,CLR,0.00,WeatherDisplay:10.34,2013-01-14 18:50:00,
2013-01-14 13:55:00,49.3,30.4,30.15,NNE,15,7.0,10.0,48,0.00,CLR,CLR,0.00,WeatherDisplay:10.34,2013-01-14 18:55:00,
2013-01-14 14:00:00,49.1,29.7,30.15,NNW,346,5.0,12.0,47,0.00,CLR,CLR,0.00,WeatherDisplay:10.34,2013-01-14 19:00:00,
2013-01-14 14:05:00,49.1,29.7,30.15,NNW,342,6.0,12.0,47,0.00,BKN,BKN,0.00,WeatherDisplay:10.34,2013-01-14 19:05:00,
2013-01-14 14:10:00,48.9,29.6,30.15,North,0,7.0,12.0,47,0.00,BKN,BKN,0.00,WeatherDisplay:10.34,2013-01-14 19:10:00,
2013-01-14 14:15:00,48.7,29.4,30.15,NW,326,6.0,10.0,47,0.00,BKN,BKN,0.00,WeatherDisplay:10.34,2013-01-14 19:15:00,
2013-01-14 14:20:00,48.7,29.4,30.18,NNW,337,4.0,10.0,47,0.00,BKN,BKN,0.00,WeatherDisplay:10.34,2013-01-14 19:20:00,
2013-01-14 14:25:00,48.6,29.2,30.18,North,351,5.0,8.0,47,0.00,BKN,BKN,0.00,WeatherDisplay:10.34,2013-01-14 19:25:00,
2013-01-14 14:30:00,48.4,29.1,30.18,NE,56,6.0,6.0,47,0.00,BKN,BKN,0.00,WeatherDisplay:10.34,2013-01-14 19:30:00,
2013-01-14 14:35:00,48.2,28.4,30.18,NNW,347,4.0,6.0,46,0.00,BKN,BKN,0.00,WeatherDisplay:10.34,2013-01-14 19:35:00,
2013-01-14 14:40:00,47.8,27.5,30.18,WNW,283,5.0,9.0,45,0.00,BKN,BKN,0.00,WeatherDisplay:10.34,2013-01-14 19:40:00,
2013-01-14 14:45:00,47.7,27.9,30.18,NNW,329,4.0,6.0,46,0.00,BKN,BKN,0.00,WeatherDisplay:10.34,2013-01-14 19:45:00,
2013-01-14 14:50:00,47.5,26.6,30.18,WSW,245,7.0,9.0,44,0.00,BKN,BKN,0.00,WeatherDisplay:10.34,2013-01-14 19:50:00,
2013-01-14 14:55:00,47.3,25.9,30.18,SW,234,7.0,12.0,43,0.00,BKN,BKN,0.00,WeatherDisplay:10.34,2013-01-14 19:55:00,
2013-01-14 15:00:00,47.1,25.7,30.18,West,280,5.0,7.0,43,0.00,BKN,BKN,0.00,WeatherDisplay:10.34,2013-01-14 20:00:00,
2013-01-14 15:05:00,46.8,24.9,30.22,NNW,330,6.0,9.0,42,0.00,OVC,OVC,0.00,WeatherDisplay:10.34,2013-01-14 20:05:00,
2013-01-14 15:10:00,46.8,24.3,30.22,West,280,7.0,12.0,41,0.00,OVC,OVC,0.00,WeatherDisplay:10.34,2013-01-14 20:10:00,
2013-01-14 15:15:00,46.4,23.9,30.22,NNW,345,4.0,7.0,41,0.00,OVC,OVC,0.00,WeatherDisplay:10.34,2013-01-14 20:15:00,
2013-01-14 15:20:00,46.0,23.0,30.22,North,0,8.0,15.0,40,0.00,OVC,OVC,0.00,WeatherDisplay:10.34,2013-01-14 20:20:00,
2013-01-14 15:25:00,45.9,22.9,30.22,NNE,12,3.0,7.0,40,0.00,OVC,OVC,0.00,WeatherDisplay:10.34,2013-01-14 20:25:00,
2013-01-14 15:30:00,45.7,22.7,30.22,North,351,4.0,13.0,40,0.00,OVC,OVC,0.00,WeatherDisplay:10.34,2013-01-14 20:30:00,
2013-01-14 15:35:00,45.3,22.4,30.22,NE,49,6.0,8.0,40,0.00,OVC,OVC,0.00,WeatherDisplay:10.34,2013-01-14 20:35:00,
2013-01-14 15:40:00,45.1,22.2,30.25,North,7,0.0,3.0,40,0.00,OVC,OVC,0.00,WeatherDisplay:10.34,2013-01-14 20:40:00,
2013-01-14 15:45:00,44.8,22.5,30.25,West,262,3.0,5.0,41,0.00,OVC,OVC,0.00,WeatherDisplay:10.34,2013-01-14 20:45:00,
2013-01-14 15:50:00,44.4,22.7,30.25,NW,307,4.0,8.0,42,0.00,OVC,OVC,0.00,WeatherDisplay:10.34,2013-01-14 20:50:00,
2013-01-14 15:55:00,44.1,22.4,30.25,NW,324,4.0,8.0,42,0.00,OVC,OVC,0.00,WeatherDisplay:10.34,2013-01-14 20:55:00,
2013-01-14 16:00:00,43.9,22.2,30.25,West,273,3.0,6.0,42,0.00,OVC,OVC,0.00,WeatherDisplay:10.34,2013-01-14 21:00:00,
2013-01-14 16:05:00,43.7,22.1,30.25,WNW,299,3.0,7.0,42,0.00,CLR,CLR,0.00,WeatherDisplay:10.34,2013-01-14 21:05:00,
2013-01-14 16:10:00,43.5,21.9,30.25,NE,34,3.0,6.0,42,0.00,CLR,CLR,0.00,WeatherDisplay:10.34,2013-01-14 21:10:00,
2013-01-14 16:15:00,43.2,21.6,30.25,WNW,291,0.0,9.0,42,0.00,CLR,CLR,0.00,WeatherDisplay:10.34,2013-01-14 21:15:00,
2013-01-14 16:20:00,43.0,21.4,30.25,SSE,168,5.0,9.0,42,0.00,CLR,CLR,0.00,WeatherDisplay:10.34,2013-01-14 21:20:00,
2013-01-14 16:25:00,42.8,21.8,30.25,NW,313,3.0,3.0,43,0.00,CLR,CLR,0.00,WeatherDisplay:10.34,2013-01-14 21:25:00,
2013-01-14 16:30:00,42.4,21.5,30.25,West,260,4.0,7.0,43,0.00,CLR,CLR,0.00,WeatherDisplay:10.34,2013-01-14 21:30:00,
2013-01-14 16:35:00,42.3,21.3,30.25,SW,235,4.0,0.0,43,0.00,CLR,CLR,0.00,WeatherDisplay:10.34,2013-01-14 21:35:00,
2013-01-14 16:40:00,41.9,21.5,30.25,WSW,252,3.0,5.0,44,0.00,CLR,CLR,0.00,WeatherDisplay:10.34,2013-01-14 21:40:00,
2013-01-14 16:45:00,41.5,21.8,30.25,WSW,246,4.0,6.0,45,0.00,CLR,CLR,0.00,WeatherDisplay:10.34,2013-01-14 21:45:00,
2013-01-14 16:50:00,41.0,21.3,30.25,WSW,238,3.0,5.0,45,0.00,CLR,CLR,0.00,WeatherDisplay:10.34,2013-01-14 21:50:00,
2013-01-14 16:55:00,40.8,21.1,30.29,WSW,245,4.0,8.0,45,0.00,CLR,CLR,0.00,WeatherDisplay:10.34,2013-01-14 21:55:00,
2013-01-14 17:00:00,40.6,21.4,30.29,West,273,3.0,3.0,46,0.00,CLR,CLR,0.00,WeatherDisplay:10.34,2013-01-14 22:00:00,
2013-01-14 17:05:00,40.3,21.1,30.29,WSW,251,0.0,3.0,46,0.00,CLR,CLR,0.00,WeatherDisplay:10.34,2013-01-14 22:05:00,
2013-01-14 17:10:00,39.9,21.8,30.29,WSW,251,0.0,2.0,48,0.00,CLR,CLR,0.00,WeatherDisplay:10.34,2013-01-14 22:10:00,
2013-01-14 17:15:00,39.4,22.3,30.29,WSW,251,0.0,0.0,50,0.00,CLR,CLR,0.00,WeatherDisplay:10.34,2013-01-14 22:15:00,
2013-01-14 17:20:00,38.8,22.7,30.29,WSW,251,0.0,0.0,52,0.00,CLR,CLR,0.00,WeatherDisplay:10.34,2013-01-14 22:20:00,
2013-01-14 17:25:00,38.5,22.8,30.29,WSW,251,0.0,0.0,53,0.00,CLR,CLR,0.00,WeatherDisplay:10.34,2013-01-14 22:25:00,
2013-01-14 17:30:00,38.1,22.9,30.29,WSW,251,0.0,3.0,54,0.00,CLR,CLR,0.00,WeatherDisplay:10.34,2013-01-14 22:30:00,
2013-01-14 17:35:00,37.8,23.0,30.29,West,259,0.0,3.0,55,0.00,CLR,CLR,0.00,WeatherDisplay:10.34,2013-01-14 22:35:00,
2013-01-14 17:40:00,37.6,23.3,30.29,NW,306,0.0,5.0,56,0.00,CLR,CLR,0.00,WeatherDisplay:10.34,2013-01-14 22:40:00,
2013-01-14 17:45:00,37.6,23.3,30.29,NNW,343,0.0,0.0,56,0.00,CLR,CLR,0.00,WeatherDisplay:10.34,2013-01-14 22:45:00,
2013-01-14 17:50:00,37.4,23.5,30.29,North,351,0.0,2.0,57,0.00,CLR,CLR,0.00,WeatherDisplay:10.34,2013-01-14 22:50:00,
2013-01-14 17:55:00,37.4,23.5,30.29,North,351,0.0,0.0,57,0.00,CLR,CLR,0.00,WeatherDisplay:10.34,2013-01-14 22:55:00,
2013-01-14 18:00:00,37.0,23.2,30.29,North,351,0.0,6.0,57,0.00,CLR,CLR,0.00,WeatherDisplay:10.34,2013-01-14 23:00:00,
2013-01-14 18:05:00,37.0,23.2,30.29,North,351,0.0,2.0,57,0.00,CLR,CLR,0.00,WeatherDisplay:10.34,2013-01-14 23:05:00,
2013-01-14 18:10:00,37.0,23.2,30.29,NNW,339,3.0,5.0,57,0.00,CLR,CLR,0.00,WeatherDisplay:10.34,2013-01-14 23:10:00,
2013-01-14 18:15:00,36.9,22.2,30.29,NNW,339,0.0,0.0,55,0.00,CLR,CLR,0.00,WeatherDisplay:10.34,2013-01-14 23:15:00,
2013-01-14 18:20:00,37.0,21.9,30.29,NNW,339,0.0,0.0,54,0.00,CLR,CLR,0.00,WeatherDisplay:10.34,2013-01-14 23:20:00,
2013-01-14 18:25:00,37.0,21.9,30.29,NNW,339,0.0,0.0,54,0.00,CLR,CLR,0.00,WeatherDisplay:10.34,2013-01-14 23:25:00,
2013-01-14 18:30:00,36.9,21.7,30.29,NNW,339,0.0,0.0,54,0.00,CLR,CLR,0.00,WeatherDisplay:10.34,2013-01-14 23:30:00,
2013-01-14 18:35:00,36.5,21.4,30.29,NNW,339,0.0,0.0,54,0.00,CLR,CLR,0.00,WeatherDisplay:10.34,2013-01-14 23:35:00,
2013-01-14 18:40:00,36.3,21.7,30.32,NNW,339,0.0,0.0,55,0.00,CLR,CLR,0.00,WeatherDisplay:10.34,2013-01-14 23:40:00,
2013-01-14 18:45:00,36.1,21.5,30.32,NNW,339,0.0,0.0,55,0.00,CLR,CLR,0.00,WeatherDisplay:10.34,2013-01-14 23:45:00,
2013-01-14 18:50:00,36.0,21.8,30.32,NNW,339,0.0,0.0,56,0.00,CLR,CLR,0.00,WeatherDisplay:10.34,2013-01-14 23:50:00,
2013-01-14 18:55:00,35.4,21.3,30.32,NNW,339,0.0,0.0,56,0.00,CLR,CLR,0.00,WeatherDisplay:10.34,2013-01-14 23:55:00,
2013-01-14 19:00:00,35.2,21.5,30.32,NNW,339,0.0,0.0,57,0.00,CLR,CLR,0.00,WeatherDisplay:10.34,2013-01-15 00:00:00,
2013-01-14 19:05:00,35.2,21.9,30.32,NNW,339,0.0,0.0,58,0.00,CLR,CLR,0.00,WeatherDisplay:10.34,2013-01-15 00:05:00,
2013-01-14 19:10:00,35.2,22.3,30.32,North,351,0.0,3.0,59,0.00,CLR,CLR,0.00,WeatherDisplay:10.34,2013-01-15 00:10:00,
2013-01-14 19:15:00,35.4,22.1,30.32,North,351,0.0,3.0,58,0.00,CLR,CLR,0.00,WeatherDisplay:10.34,2013-01-15 00:15:00,
2013-01-14 19:20:00,35.6,22.3,30.32,NNW,347,0.0,0.0,58,0.00,CLR,CLR,0.00,WeatherDisplay:10.34,2013-01-15 00:20:00,
2013-01-14 19:25:00,35.6,22.3,30.35,NNW,347,0.0,0.0,58,0.00,CLR,CLR,0.00,WeatherDisplay:10.34,2013-01-15 00:25:00,
2013-01-14 19:30:00,35.6,22.3,30.35,North,351,0.0,3.0,58,0.00,CLR,CLR,0.00,WeatherDisplay:10.34,2013-01-15 00:30:00,
2013-01-14 19:35:00,35.6,22.3,30.35,North,351,0.0,0.0,58,0.00,CLR,CLR,0.00,WeatherDisplay:10.34,2013-01-15 00:35:00,
2013-01-14 19:40:00,35.4,22.1,30.35,NW,325,0.0,3.0,58,0.00,CLR,CLR,0.00,WeatherDisplay:10.34,2013-01-15 00:40:00,
2013-01-14 19:45:00,35.4,21.7,30.35,NNW,344,0.0,0.0,57,0.00,CLR,CLR,0.00,WeatherDisplay:10.34,2013-01-15 00:45:00,
2013-01-14 19:50:00,35.6,21.4,30.35,North,351,0.0,3.0,56,0.00,CLR,CLR,0.00,WeatherDisplay:10.34,2013-01-15 00:50:00,
2013-01-14 19:55:00,35.8,21.2,30.35,North,351,0.0,0.0,55,0.00,CLR,CLR,0.00,WeatherDisplay:10.34,2013-01-15 00:55:00,
2013-01-14 20:00:00,35.8,21.2,30.35,North,351,0.0,0.0,55,0.00,CLR,CLR,0.00,WeatherDisplay:10.34,2013-01-15 01:00:00,
2013-01-14 20:05:00,35.6,20.6,30.35,North,351,0.0,3.0,54,0.00,CLR,CLR,0.00,WeatherDisplay:10.34,2013-01-15 01:05:00,
2013-01-14 20:10:00,35.4,20.0,30.35,NNW,340,3.0,6.0,53,0.00,CLR,CLR,0.00,WeatherDisplay:10.34,2013-01-15 01:10:00,
2013-01-14 20:15:00,35.4,19.5,30.35,NNW,344,4.0,5.0,52,0.00,CLR,CLR,0.00,WeatherDisplay:10.34,2013-01-15 01:15:00,
2013-01-14 20:20:00,35.4,19.1,30.35,NW,308,3.0,7.0,51,0.00,CLR,CLR,0.00,WeatherDisplay:10.34,2013-01-15 01:20:00,
2013-01-14 20:25:00,35.4,19.1,30.35,NNW,346,0.0,0.0,51,0.00,CLR,CLR,0.00,WeatherDisplay:10.34,2013-01-15 01:25:00,
2013-01-14 20:30:00,35.4,19.1,30.35,NNW,347,0.0,0.0,51,0.00,CLR,CLR,0.00,WeatherDisplay:10.34,2013-01-15 01:30:00,
2013-01-14 20:36:00,35.4,19.5,30.35,NNW,346,0.0,0.0,52,0.00,CLR,CLR,0.00,WeatherDisplay:10.34,2013-01-15 01:36:00,
2013-01-14 20:41:00,35.2,19.4,30.35,NNW,346,0.0,0.0,52,0.00,CLR,CLR,0.00,WeatherDisplay:10.34,2013-01-15 01:41:00,
2013-01-14 20:46:00,34.7,19.7,30.35,North,351,0.0,0.0,54,0.00,CLR,CLR,0.00,WeatherDisplay:10.34,2013-01-15 01:46:00,
2013-01-14 20:51:00,34.5,20.4,30.38,North,351,0.0,0.0,56,0.00,CLR,CLR,0.00,WeatherDisplay:10.34,2013-01-15 01:51:00,
2013-01-14 20:56:00,34.3,20.7,30.39,North,351,0.0,0.0,57,0.00,CLR,CLR,0.00,WeatherDisplay:10.34,2013-01-15 01:56:00,
2013-01-14 21:01:00,34.3,20.7,30.39,North,351,0.0,5.0,57,0.00,CLR,CLR,0.00,WeatherDisplay:10.34,2013-01-15 02:01:00,
2013-01-14 21:06:00,34.3,21.1,30.35,North,351,0.0,0.0,58,0.00,CLR,CLR,0.00,WeatherDisplay:10.34,2013-01-15 02:06:00,
2013-01-14 21:11:00,34.3,21.1,30.35,North,0,0.0,0.0,58,0.00,CLR,CLR,0.00,WeatherDisplay:10.34,2013-01-15 02:11:00,
2013-01-14 21:16:00,34.2,20.1,30.35,North,0,0.0,0.0,56,0.00,CLR,CLR,0.00,WeatherDisplay:10.34,2013-01-15 02:16:00,
2013-01-14 21:21:00,34.2,20.1,30.35,North,0,0.0,0.0,56,0.00,CLR,CLR,0.00,WeatherDisplay:10.34,2013-01-15 02:21:00,
2013-01-14 21:26:00,34.3,20.3,30.35,North,0,0.0,0.0,56,0.00,CLR,CLR,0.00,WeatherDisplay:10.34,2013-01-15 02:26:00,
2013-01-14 21:31:00,34.3,20.3,30.35,North,0,0.0,0.0,56,0.00,CLR,CLR,0.00,WeatherDisplay:10.34,2013-01-15 02:31:00,
2013-01-14 21:36:00,34.2,20.5,30.35,North,0,0.0,0.0,57,0.00,CLR,CLR,0.00,WeatherDisplay:10.34,2013-01-15 02:36:00,
2013-01-14 21:41:00,34.2,20.9,30.35,North,0,0.0,0.0,58,0.00,CLR,CLR,0.00,WeatherDisplay:10.34,2013-01-15 02:41:00,
2013-01-14 21:46:00,34.0,20.7,30.35,North,0,0.0,0.0,58,0.00,CLR,CLR,0.00,WeatherDisplay:10.34,2013-01-15 02:46:00,
2013-01-14 21:51:00,34.0,20.7,30.35,NNE,21,0.0,3.0,58,0.00,CLR,CLR,0.00,WeatherDisplay:10.34,2013-01-15 02:51:00,
2013-01-14 21:56:00,34.2,20.5,30.35,NNW,343,4.0,6.0,57,0.00,CLR,CLR,0.00,WeatherDisplay:10.34,2013-01-15 02:56:00,
2013-01-14 22:01:00,34.3,20.3,30.35,NNW,343,0.0,3.0,56,0.00,CLR,CLR,0.00,WeatherDisplay:10.34,2013-01-15 03:01:00,
2013-01-14 22:06:00,34.5,19.6,30.35,NNW,343,0.0,0.0,54,0.00,CLR,CLR,0.00,WeatherDisplay:10.34,2013-01-15 03:06:00,
2013-01-14 22:11:00,34.5,19.6,30.35,NNW,343,0.0,0.0,54,0.00,CLR,CLR,0.00,WeatherDisplay:10.34,2013-01-15 03:11:00,
2013-01-14 22:16:00,34.5,19.1,30.35,NNW,342,0.0,2.0,53,0.00,CLR,CLR,0.00,WeatherDisplay:10.34,2013-01-15 03:16:00,
2013-01-14 22:21:00,34.3,19.0,30.35,NNW,340,0.0,0.0,53,0.00,CLR,CLR,0.00,WeatherDisplay:10.34,2013-01-15 03:21:00,
2013-01-14 22:27:00,34.3,19.0,30.35,NNW,340,0.0,0.0,53,0.00,CLR,CLR,0.00,WeatherDisplay:10.34,2013-01-15 03:27:00,
2013-01-14 22:32:00,34.3,19.4,30.35,NNW,340,0.0,0.0,54,0.00,CLR,CLR,0.00,WeatherDisplay:10.34,2013-01-15 03:32:00,
2013-01-14 22:37:00,34.2,20.1,30.38,NNW,340,0.0,0.0,56,0.00,CLR,CLR,0.00,WeatherDisplay:10.34,2013-01-15 03:37:00,
2013-01-14 22:42:00,34.2,20.5,30.38,NNW,340,0.0,0.0,57,0.00,CLR,CLR,0.00,WeatherDisplay:10.34,2013-01-15 03:42:00,
2013-01-14 22:47:00,34.0,20.7,30.38,NNW,340,0.0,0.0,58,0.00,CLR,CLR,0.00,WeatherDisplay:10.34,2013-01-15 03:47:00,
2013-01-14 22:52:00,33.8,21.0,30.35,NNW,340,0.0,0.0,59,0.00,CLR,CLR,0.00,WeatherDisplay:10.34,2013-01-15 03:52:00,
2013-01-14 22:57:00,33.8,21.0,30.35,NNW,340,0.0,0.0,59,0.00,CLR,CLR,0.00,WeatherDisplay:10.34,2013-01-15 03:57:00,
2013-01-14 23:02:00,33.6,20.8,30.35,NNW,340,0.0,0.0,59,0.00,CLR,CLR,0.00,WeatherDisplay:10.34,2013-01-15 04:02:00,
2013-01-14 23:07:00,33.6,21.2,30.35,NNW,340,0.0,0.0,60,0.00,CLR,CLR,0.00,WeatherDisplay:10.34,2013-01-15 04:07:00,
2013-01-14 23:12:00,33.6,21.2,30.35,NNW,340,0.0,0.0,60,0.00,CLR,CLR,0.00,WeatherDisplay:10.34,2013-01-15 04:12:00,
2013-01-14 23:17:00,33.6,21.2,30.35,NNW,340,0.0,0.0,60,0.00,CLR,CLR,0.00,WeatherDisplay:10.34,2013-01-15 04:17:00,
2013-01-14 23:22:00,33.4,21.0,30.35,NNW,340,0.0,0.0,60,0.00,CLR,CLR,0.00,WeatherDisplay:10.34,2013-01-15 04:22:00,
2013-01-14 23:27:00,33.3,20.9,30.35,NNW,340,0.0,0.0,60,0.00,CLR,CLR,0.00,WeatherDisplay:10.34,2013-01-15 04:27:00,
2013-01-14 23:32:00,33.3,20.9,30.35,NNW,340,0.0,0.0,60,0.00,CLR,CLR,0.00,WeatherDisplay:10.34,2013-01-15 04:32:00,
2013-01-14 23:37:00,33.3,20.9,30.38,NNW,340,0.0,0.0,60,0.00,CLR,CLR,0.00,WeatherDisplay:10.34,2013-01-15 04:37:00,
2013-01-14 23:42:00,33.3,20.9,30.38,NNW,340,0.0,0.0,60,0.00,CLR,CLR,0.00,WeatherDisplay:10.34,2013-01-15 04:42:00,
2013-01-14 23:47:00,33.3,20.9,30.38,NNW,340,0.0,0.0,60,0.00,CLR,CLR,0.00,WeatherDisplay:10.34,2013-01-15 04:47:00,
2013-01-14 23:52:00,33.3,21.3,30.38,NNW,340,0.0,0.0,61,0.00,CLR,CLR,0.00,WeatherDisplay:10.34,2013-01-15 04:52:00,
2013-01-14 23:57:00,33.3,21.3,30.38,NNW,340,0.0,0.0,61,0.00,CLR,CLR,0.00,WeatherDisplay:10.34,2013-01-15 04:57:00,